Weather in Zelenyy Gay

Russia / Tambov Oblast     52°57′27″N   40°23′30″E
temp.,
°C
wind,
m/s
gust,
m/s
humid.,
%
clouds,
%
prec.,
mm/h
press.,
hPa
HPBL,
m
4 march, thu
thu400:00−1w5119099 0.1 1013607
03:00−2wsw51192100 0.1 1011554
06:00−1wsw71491100 0.0 1009556
09:00−1wsw71489100 0.0 1007504
12:00+1wsw8158790 0.0 1006762
15:00+1wsw7138495 0.0 1004907
18:000wsw51290100 0.0 1003742
21:000wsw51195100 0.1 1002642
5 march, fri
fri500:00−1w3898100 0.6 1001405
03:00−2w4997100 0.9 1002385
06:00−3nw4796100 0.4 1004270
09:00−4nnw489496 0.5 1007333
12:00−3nnw358956 0.0 1009400
15:00−2nw358533 0.0 1011579
18:00−5wnw239194 0.0 101240
21:00−7wnw229281 0.0 101521
6 march, sat
sat600:00−8nw1293100 0.0 101621
03:00−9n1192100 0.0 101621
06:00−9ene1191100 0.0 101621
09:00−8e1191100 0.0 101656
12:00−5e118781 0.0 1015281
15:00−4se118884 0.0 1014348
18:00−6ese119697 0.3 101436
21:00−8n119797 0.8 101621
7 march, sun
sun700:00−8wnw249677 0.1 101772
03:00−10wnw479584 0.2 1017183
06:00−12sw479215 0.0 1016127
09:00−8sw7148438 0.0 1014556
12:00−4sw91575100 0.0 10101032
15:00−3sw101883100 0.1 10061329
18:00−3wsw101892100 1.3 10031194
21:00−5nw61486100 3.4 1003859
8 march, mon
mon800:00−7wsw3377100 0.0 100432
03:00−8sw4789100 0.0 1004155
06:00−6sw61193100 0.0 1001413
09:00−4wsw61091100 0.4 1000841
12:00−6wnw91473100 0.3 10011586
15:00−7wnw9147567 0.3 10061326
18:00−9wnw6138058 0.0 1009531
21:00−11w478529 0.0 1012152